DW5868 Weather Reports


time (UTC)temp
C
wind
direction
speed
KPH
gust
KPH
rain 1hr
cm
rain 24hr
cm
rain mn
cm
humidity
%
barometer
mb
20260506184533 13 262 0.0 8.0 0.00 0.33 0.00 40 1019.4
20260506183041 13 24 1.6 11.3 0.00 0.38 0.00 42 1019.4
20260506181530 13 71 4.8 17.7 0.00 0.38 0.00 41 1019.5
20260506180035 12 80 4.8 24.1 0.00 0.38 0.00 41 1019.6
20260506174527 12 103 0.0 14.5 0.00 0.38 0.00 45 1019.7
20260506173027 11 15 4.8 11.3 0.00 0.38 0.00 46 1019.7
20260506171530 12 38 4.8 16.1 0.00 0.38 0.00 44 1019.8
20260506170025 12 181 4.8 11.3 0.00 0.38 0.00 44 1019.7
20260506164525 11 57 1.6 11.3 0.00 0.38 0.00 47 1019.7
20260506163024 11 86 1.6 12.9 0.00 0.38 0.00 48 1019.7
20260506161524 11 61 3.2 8.0 0.00 0.38 0.00 49 1019.6
20260506160022 11 165 0.0 8.0 0.00 0.38 0.00 48 1019.4
20260506154523 11 131 3.2 14.5 0.00 0.38 0.00 47 1019.3
20260506153021 11 77 3.2 9.7 0.00 0.38 0.00 50 1019.3
20260506151519 10 20 0.0 3.2 0.00 0.38 0.00 56 1019.3
20260506150015 10 91 0.0 1.6 0.00 0.38 0.00 56 1019.4
20260506144509 8 43 0.0 0.0 0.00 0.38 0.00 60 1019.1
20260506143012 6 284 0.0 0.0 0.00 0.38 0.00 73 1019.0
20260506141501 3 282 0.0 0.0 0.00 0.38 0.00 82 1018.7
20260506140059 -17 0.0 0.0 0.00 0.38 0.00 1018.5
20260506134556 -17 0.0 0.0 0.00 0.38 0.00 1018.3
20260506133052 -17 0.0 0.0 0.00 0.38 0.00 1018.3
20260506131548 -17 0.0 0.0 0.00 0.38 0.00 1018.2
20260506130043 -17 0.0 0.0 0.00 0.38 0.00 1018.4
20260506124540 0 280 0.0 0.0 0.00 0.38 0.00 89 1018.6
20260506123036 0 280 0.0 0.0 0.00 0.38 0.00 88 1018.3
20260506121534 0 274 0.0 0.0 0.00 0.38 0.00 89 1018.2
20260506120041 0 282 0.0 0.0 0.00 0.38 0.00 89 1018.2
20260506114534 0 283 0.0 0.0 0.00 0.38 0.00 88 1018.1
20260506113034 0 283 0.0 0.0 0.00 0.38 0.00 88 1018.1
20260506111531 1 280 0.0 0.0 0.00 0.38 0.00 88 1017.9
20260506110032 0 281 0.0 0.0 0.00 0.38 0.00 88 1017.8
20260506104530 1 279 0.0 0.0 0.00 0.38 0.00 88 1017.7
20260506103030 1 280 0.0 0.0 0.00 0.38 0.00 89 1017.6
20260506101527 0 281 0.0 0.0 0.00 0.38 0.00 89 1017.6
20260506100027 1 281 0.0 0.0 0.00 0.38 0.00 88 1017.4
20260506094525 1 281 0.0 0.0 0.00 0.38 0.00 89 1017.3
20260506093023 1 280 0.0 0.0 0.00 0.38 0.00 88 1017.2
20260506091520 1 279 0.0 0.0 0.00 0.38 0.00 86 1017.2
20260506090024 2 279 0.0 0.0 0.00 0.38 0.00 83 1017.1
20260506084520 3 279 0.0 0.0 0.00 0.38 0.00 79 1017.0
20260506083017 3 279 0.0 0.0 0.00 0.38 0.00 78 1017.0
20260506081514 2 138 0.0 0.0 0.00 0.38 0.00 81 1017.1
20260506073008 2 281 0.0 0.0 0.00 0.38 0.38 82 1016.9
20260506071505 1 275 0.0 0.0 0.00 0.38 0.38 85 1016.7
20260506061504 2 277 0.0 0.0 0.00 0.38 0.38 84 1016.3
20260506050115 2 282 0.0 1.6 0.00 0.38 0.38 81 1015.5
20260506044558 2 283 0.0 1.6 0.00 0.38 0.38 83 1015.4
20260506043105 3 288 0.0 1.6 0.00 0.38 0.38 81 1015.3
20260506041557 3 230 0.0 8.0 0.00 0.38 0.38 80 1015.2
20260506040104 3 186 0.0 6.4 0.00 0.38 0.38 81 1015.0
20260506034604 3 277 0.0 1.6 0.00 0.38 0.38 80 1014.9
20260506033053 3 277 0.0 1.6 0.00 0.38 0.38 80 1014.6
20260506031553 3 277 0.0 3.2 0.00 0.38 0.38 79 1014.3
20260506030054 4 279 0.0 4.8 0.00 0.38 0.38 76 1013.9
20260506024555 5 142 0.0 3.2 0.00 0.38 0.38 73 1013.7
20260506023046 5 311 0.0 1.6 0.00 0.38 0.38 67 1013.6
20260506021558 6 78 0.0 8.0 0.00 0.38 0.38 64 1013.4
20260506020043 8 287 0.0 4.8 0.00 0.38 0.38 55 1013.2
20260506014543 8 33 0.0 8.0 0.00 0.38 0.38 54 1013.1
20260506013052 8 15 0.0 8.0 0.00 0.38 0.38 54 1013.0
20260506011545 8 265 1.6 11.3 0.00 0.38 0.38 57 1012.9
20260506010041 8 80 3.2 9.7 0.00 0.38 0.38 55 1012.8
20260506004540 8 54 3.2 8.0 0.00 0.38 0.38 56 1012.8
20260506003040 8 248 1.6 6.4 0.00 0.38 0.38 56 1012.7
20260506001539 7 202 0.0 8.0 0.00 0.38 0.38 60 1012.7
20260506000039 7 199 0.0 4.8 0.00 0.38 0.38 65 1012.7
20260505234534 7 202 1.6 11.3 0.00 0.38 0.38 66 1012.5
20260505233036 7 221 3.2 11.3 0.00 0.38 0.38 64 1012.6
20260505231535 6 78 3.2 11.3 0.00 0.38 0.38 66 1012.7
20260505230036 6 138 0.0 9.7 0.00 0.38 0.38 67 1012.5
20260505224529 6 65 1.6 9.7 0.00 0.38 0.38 66 1012.6
20260505223033 6 342 6.4 17.7 0.00 0.41 0.38 67 1012.4
20260505221527 6 284 3.2 19.3 0.00 0.41 0.38 73 1012.2
20260505220025 5 245 6.4 17.7 0.00 0.41 0.38 74 1012.2
20260505214531 5 290 3.2 9.7 0.03 0.41 0.38 74 1012.2
20260505213026 5 71 0.0 4.8 0.05 0.53 0.38 76 1012.3
20260505211526 5 83 0.0 8.0 0.05 0.53 0.38 76 1012.3
20260505210025 6 123 1.6 12.9 0.10 0.53 0.38 71 1012.2
20260505204524 6 137 1.6 11.3 0.13 0.53 0.38 76 1012.2
20260505203020 4 128 6.4 14.5 0.18 0.64 0.36 81 1012.3
20260505201518 4 125 1.6 8.0 0.20 0.61 0.33 83 1012.5
20260505200016 3 89 1.6 14.5 0.20 0.58 0.30 86 1012.6
20260505194516 3 120 1.6 8.0 0.20 0.53 0.25 88 1012.8
20260505193012 3 76 0.0 3.2 0.20 0.51 0.20 90 1013.0
20260505191512 2 28 0.0 8.0 0.15 0.46 0.15 88 1012.7
20260505190017 2 300 1.6 6.4 0.10 0.41 0.10 88 1012.5